Year,Month,Day,Hour,Minute,Value (Times are PST for temperature in C)
2018,04,16,00,00,9.40
2018,04,16,00,01,9.40
2018,04,16,00,02,9.30
2018,04,16,00,03,9.30
2018,04,16,00,04,9.30
2018,04,16,00,05,9.30
2018,04,16,00,06,9.30
2018,04,16,00,07,9.30
2018,04,16,00,08,9.30
2018,04,16,00,09,9.30
2018,04,16,00,10,9.20
2018,04,16,00,11,9.20
2018,04,16,00,12,9.20
2018,04,16,00,13,9.20
2018,04,16,00,14,9.20
2018,04,16,00,15,9.20
2018,04,16,00,16,9.20
2018,04,16,00,17,9.20
2018,04,16,00,18,9.10
2018,04,16,00,19,9.10
2018,04,16,00,20,9.10
2018,04,16,00,21,9.10
2018,04,16,00,22,9.00
2018,04,16,00,23,9.00
2018,04,16,00,24,9.00
2018,04,16,00,25,9.00
2018,04,16,00,26,8.90
2018,04,16,00,27,8.90
2018,04,16,00,28,8.90
2018,04,16,00,29,8.90
2018,04,16,00,30,8.80
2018,04,16,00,31,8.80
2018,04,16,00,32,8.80
2018,04,16,00,33,8.80
2018,04,16,00,34,8.80
2018,04,16,00,35,8.70
2018,04,16,00,36,8.70
2018,04,16,00,37,8.70
2018,04,16,00,38,8.70
2018,04,16,00,39,8.70
2018,04,16,00,40,8.70
2018,04,16,00,41,8.60
2018,04,16,00,42,8.60
2018,04,16,00,43,8.60
2018,04,16,00,44,8.60
2018,04,16,00,45,8.60
2018,04,16,00,46,8.50
2018,04,16,00,47,8.50
2018,04,16,00,48,8.40
2018,04,16,00,49,8.40
2018,04,16,00,50,8.40
2018,04,16,00,51,8.30
2018,04,16,00,52,8.30
2018,04,16,00,53,8.30
2018,04,16,00,54,8.20
2018,04,16,00,55,8.20
2018,04,16,00,56,8.10
2018,04,16,00,57,8.10
2018,04,16,00,58,8.10
2018,04,16,00,59,8.10
2018,04,16,01,00,8.10
2018,04,16,01,01,8.00
2018,04,16,01,02,8.00
2018,04,16,01,03,8.00
2018,04,16,01,04,8.00
2018,04,16,01,05,8.00
2018,04,16,01,06,8.00
2018,04,16,01,07,8.00
2018,04,16,01,08,8.00
2018,04,16,01,09,8.00
2018,04,16,01,10,7.90
2018,04,16,01,11,7.90
2018,04,16,01,12,7.90
2018,04,16,01,13,7.90
2018,04,16,01,14,7.90
2018,04,16,01,15,7.90
2018,04,16,01,16,7.90
2018,04,16,01,17,7.90
2018,04,16,01,18,7.90
2018,04,16,01,19,7.90
2018,04,16,01,20,7.90
2018,04,16,01,21,7.90
2018,04,16,01,22,7.90
2018,04,16,01,23,7.90
2018,04,16,01,24,7.90
2018,04,16,01,25,7.90
2018,04,16,01,26,7.90
2018,04,16,01,27,7.90
2018,04,16,01,28,7.90
2018,04,16,01,29,7.90
2018,04,16,01,30,7.90
2018,04,16,01,31,7.80
2018,04,16,01,32,7.80
2018,04,16,01,33,7.80
2018,04,16,01,34,7.80
2018,04,16,01,35,7.80
2018,04,16,01,36,7.70
2018,04,16,01,37,7.70
2018,04,16,01,38,7.70
2018,04,16,01,39,7.70
2018,04,16,01,40,7.70
2018,04,16,01,41,7.70
2018,04,16,01,42,7.70
2018,04,16,01,43,7.70
2018,04,16,01,44,7.70
2018,04,16,01,45,7.70
2018,04,16,01,46,7.70
2018,04,16,01,47,7.60
2018,04,16,01,48,7.60
2018,04,16,01,49,7.60
2018,04,16,01,50,7.60
2018,04,16,01,51,7.60
2018,04,16,01,52,7.60
2018,04,16,01,53,7.50
2018,04,16,01,54,7.50
2018,04,16,01,55,7.50
2018,04,16,01,56,7.50
2018,04,16,01,57,7.50
2018,04,16,01,58,7.50
2018,04,16,01,59,7.50
2018,04,16,02,00,7.50
2018,04,16,02,01,7.40
2018,04,16,02,02,7.40
2018,04,16,02,03,7.40
2018,04,16,02,04,7.40
2018,04,16,02,05,7.40
2018,04,16,02,06,7.40
2018,04,16,02,07,7.40
2018,04,16,02,08,7.40
2018,04,16,02,09,7.40
2018,04,16,02,10,7.40
2018,04,16,02,11,7.40
2018,04,16,02,12,7.40
2018,04,16,02,13,7.30
2018,04,16,02,14,7.30
2018,04,16,02,15,7.30
2018,04,16,02,16,7.30
2018,04,16,02,17,7.30
2018,04,16,02,18,7.30
2018,04,16,02,19,7.30
2018,04,16,02,20,7.20
2018,04,16,02,21,7.20
2018,04,16,02,22,7.20
2018,04,16,02,23,7.20
2018,04,16,02,24,7.20
2018,04,16,02,25,7.20
2018,04,16,02,26,7.20
2018,04,16,02,27,7.20
2018,04,16,02,28,7.20
2018,04,16,02,29,7.20
2018,04,16,02,30,7.20
2018,04,16,02,31,7.20
2018,04,16,02,32,7.10
2018,04,16,02,33,7.10
2018,04,16,02,34,7.10
2018,04,16,02,35,7.10
2018,04,16,02,36,7.10
2018,04,16,02,37,7.10
2018,04,16,02,38,7.10
2018,04,16,02,39,7.10
2018,04,16,02,40,7.00
2018,04,16,02,41,7.00
2018,04,16,02,42,7.00
2018,04,16,02,43,7.00
2018,04,16,02,44,7.00
2018,04,16,02,45,7.00
2018,04,16,02,46,7.00
2018,04,16,02,47,7.00
2018,04,16,02,48,7.00
2018,04,16,02,49,6.90
2018,04,16,02,50,6.90
2018,04,16,02,51,6.90
2018,04,16,02,52,6.90
2018,04,16,02,53,6.90
2018,04,16,02,54,6.90
2018,04,16,02,55,6.90
2018,04,16,02,56,6.90
2018,04,16,02,57,6.90
2018,04,16,02,58,6.90
2018,04,16,02,59,6.90
2018,04,16,03,00,6.90
2018,04,16,03,01,6.90
2018,04,16,03,02,6.90
2018,04,16,03,03,6.90
2018,04,16,03,04,6.80
2018,04,16,03,05,6.80
2018,04,16,03,06,6.80
2018,04,16,03,07,6.80
2018,04,16,03,08,6.80
2018,04,16,03,09,6.80
2018,04,16,03,10,6.80
2018,04,16,03,11,6.80
2018,04,16,03,12,6.80
2018,04,16,03,13,6.80
2018,04,16,03,14,6.80
2018,04,16,03,15,6.80
2018,04,16,03,16,6.80
2018,04,16,03,17,6.80
2018,04,16,03,18,6.80
2018,04,16,03,19,6.80
2018,04,16,03,20,6.80
2018,04,16,03,21,6.80
2018,04,16,03,22,6.80
2018,04,16,03,23,6.80
2018,04,16,03,24,6.70
2018,04,16,03,25,6.70
2018,04,16,03,26,6.70
2018,04,16,03,27,6.70
2018,04,16,03,28,6.70
2018,04,16,03,29,6.70
2018,04,16,03,30,6.70
2018,04,16,03,31,6.70
2018,04,16,03,32,6.70
2018,04,16,03,33,6.70
2018,04,16,03,34,6.70
2018,04,16,03,35,6.70
2018,04,16,03,36,6.70
2018,04,16,03,37,6.70
2018,04,16,03,38,6.70
2018,04,16,03,39,6.70
2018,04,16,03,40,6.70
2018,04,16,03,41,6.70
2018,04,16,03,42,6.70
2018,04,16,03,43,6.70
2018,04,16,03,44,6.70
2018,04,16,03,45,6.70
2018,04,16,03,46,6.70
2018,04,16,03,47,6.70
2018,04,16,03,48,6.70
2018,04,16,03,49,6.70
2018,04,16,03,50,6.60
2018,04,16,03,51,6.60
2018,04,16,03,52,6.60
2018,04,16,03,53,6.60
2018,04,16,03,54,6.60
2018,04,16,03,55,6.60
2018,04,16,03,56,6.60
2018,04,16,03,57,6.60
2018,04,16,03,58,6.60
2018,04,16,03,59,6.60
2018,04,16,04,00,6.60
2018,04,16,04,01,6.60
2018,04,16,04,02,6.60
2018,04,16,04,03,6.60
2018,04,16,04,04,6.60
2018,04,16,04,05,6.60
2018,04,16,04,06,6.60
2018,04,16,04,07,6.60
2018,04,16,04,08,6.60
2018,04,16,04,09,6.60
2018,04,16,04,10,6.60
2018,04,16,04,11,6.60
2018,04,16,04,12,6.60
2018,04,16,04,13,6.60
2018,04,16,04,14,6.60
2018,04,16,04,15,6.60
2018,04,16,04,16,6.60
2018,04,16,04,17,6.60
2018,04,16,04,18,6.60
2018,04,16,04,19,6.60
2018,04,16,04,20,6.60
2018,04,16,04,21,6.60
2018,04,16,04,22,6.60
2018,04,16,04,23,6.60
2018,04,16,04,24,6.50
2018,04,16,04,25,6.50
2018,04,16,04,26,6.50
2018,04,16,04,27,6.50
2018,04,16,04,28,6.50
2018,04,16,04,29,6.50
2018,04,16,04,30,6.50
2018,04,16,04,31,6.50
2018,04,16,04,32,6.50
2018,04,16,04,33,6.50
2018,04,16,04,34,6.50
2018,04,16,04,35,6.50
2018,04,16,04,36,6.50
2018,04,16,04,37,6.50
2018,04,16,04,38,6.50
2018,04,16,04,39,6.50
2018,04,16,04,40,6.50
2018,04,16,04,41,6.50
2018,04,16,04,42,6.50
2018,04,16,04,43,6.50
2018,04,16,04,44,6.50
2018,04,16,04,45,6.50
2018,04,16,04,46,6.50
2018,04,16,04,47,6.50
2018,04,16,04,48,6.50
2018,04,16,04,49,6.50
2018,04,16,04,50,6.50
2018,04,16,04,51,6.50
2018,04,16,04,52,6.50
2018,04,16,04,53,6.50
2018,04,16,04,54,6.50
2018,04,16,04,55,6.50
2018,04,16,04,56,6.50
2018,04,16,04,57,6.50
2018,04,16,04,58,6.50
2018,04,16,04,59,6.40
2018,04,16,05,00,6.50
2018,04,16,05,01,6.50
2018,04,16,05,02,6.50
2018,04,16,05,03,6.50
2018,04,16,05,04,6.50
2018,04,16,05,05,6.50
2018,04,16,05,06,6.40
2018,04,16,05,07,6.40
2018,04,16,05,08,6.50
2018,04,16,05,09,6.40
2018,04,16,05,10,6.40
2018,04,16,05,11,6.40
2018,04,16,05,12,6.40
2018,04,16,05,13,6.40
2018,04,16,05,14,6.40
2018,04,16,05,15,6.40
2018,04,16,05,16,6.40
2018,04,16,05,17,6.40
2018,04,16,05,18,6.40
2018,04,16,05,19,6.40
2018,04,16,05,20,6.40
2018,04,16,05,21,6.40
2018,04,16,05,22,6.40
2018,04,16,05,23,6.40
2018,04,16,05,24,6.40
2018,04,16,05,25,6.40
2018,04,16,07,57,6.50
2018,04,16,07,58,6.50
2018,04,16,07,59,6.50
2018,04,16,08,00,6.50
2018,04,16,08,01,6.50
2018,04,16,08,02,6.50
2018,04,16,08,03,6.50
2018,04,16,08,04,6.50
2018,04,16,08,05,6.60
2018,04,16,08,06,6.50
2018,04,16,08,07,6.60
2018,04,16,08,08,6.50
2018,04,16,08,09,6.50
2018,04,16,08,10,6.60
2018,04,16,08,11,6.60
2018,04,16,08,12,6.60
2018,04,16,08,13,6.60
2018,04,16,08,14,6.60
2018,04,16,08,15,6.60
2018,04,16,08,16,6.60
2018,04,16,08,17,6.60
2018,04,16,08,18,6.60
2018,04,16,08,19,6.60
2018,04,16,08,20,6.60
2018,04,16,08,21,6.60
2018,04,16,08,22,6.60
2018,04,16,08,23,6.60
2018,04,16,08,24,6.60
2018,04,16,08,25,6.60
2018,04,16,08,26,6.60
2018,04,16,08,27,6.60
2018,04,16,08,28,6.60
2018,04,16,08,29,6.60
2018,04,16,08,30,6.60
2018,04,16,08,31,6.60
2018,04,16,08,32,6.60
2018,04,16,08,33,6.60
2018,04,16,08,34,6.60
2018,04,16,08,35,6.60
2018,04,16,08,36,6.70
2018,04,16,08,37,6.70
2018,04,16,08,38,6.70
2018,04,16,08,39,6.70
2018,04,16,08,40,6.70
2018,04,16,08,41,6.70
2018,04,16,08,42,6.80
2018,04,16,08,43,6.80
2018,04,16,08,44,6.80
2018,04,16,08,45,6.80
2018,04,16,08,46,6.80
2018,04,16,08,47,6.80
2018,04,16,08,48,6.80
2018,04,16,08,49,6.80
2018,04,16,08,50,6.90
2018,04,16,08,51,6.90
2018,04,16,08,52,6.90
2018,04,16,08,53,6.90
2018,04,16,08,54,6.90
2018,04,16,08,55,6.90
2018,04,16,08,56,6.90
2018,04,16,08,57,7.00
2018,04,16,08,58,7.00
2018,04,16,08,59,7.00
2018,04,16,09,00,7.00
2018,04,16,09,01,7.00
2018,04,16,09,02,7.00
2018,04,16,09,03,7.00
2018,04,16,09,04,7.00
2018,04,16,09,05,7.00
2018,04,16,09,06,7.00
2018,04,16,09,07,7.00
2018,04,16,09,08,7.00
2018,04,16,09,09,7.00
2018,04,16,09,10,7.00
2018,04,16,09,11,7.00
2018,04,16,09,12,7.00
2018,04,16,09,13,7.00
2018,04,16,09,14,7.00
2018,04,16,09,15,7.00
2018,04,16,09,16,7.00
2018,04,16,09,17,7.00
2018,04,16,09,18,7.00
2018,04,16,09,19,7.00
2018,04,16,09,20,7.00
2018,04,16,09,21,7.00
2018,04,16,09,22,7.00
2018,04,16,09,23,7.00
2018,04,16,09,24,7.00
2018,04,16,09,25,7.00
2018,04,16,09,26,7.00
2018,04,16,09,27,7.00
2018,04,16,09,28,7.00
2018,04,16,09,29,7.00
2018,04,16,09,30,7.00
2018,04,16,09,31,6.90
2018,04,16,09,32,6.90
2018,04,16,09,33,6.90
2018,04,16,09,34,6.90
2018,04,16,09,35,6.90
2018,04,16,09,36,6.90
2018,04,16,09,37,6.90
2018,04,16,09,38,6.90
2018,04,16,09,39,6.90
2018,04,16,09,40,6.90
2018,04,16,09,41,6.90
2018,04,16,09,42,6.90
2018,04,16,09,43,6.90
2018,04,16,09,44,7.00
2018,04,16,09,45,7.00
2018,04,16,09,46,7.00
2018,04,16,09,47,7.00
2018,04,16,09,48,7.00
2018,04,16,09,49,7.00
2018,04,16,09,50,7.00
2018,04,16,09,51,7.00
2018,04,16,09,52,7.00
2018,04,16,09,53,7.00
2018,04,16,09,54,7.00
2018,04,16,09,55,7.10
2018,04,16,09,56,7.10
2018,04,16,09,57,7.10
2018,04,16,09,58,7.10
2018,04,16,09,59,7.10
2018,04,16,10,00,7.10
2018,04,16,10,01,7.10
2018,04,16,10,02,7.10
2018,04,16,10,03,7.10
2018,04,16,10,04,7.10
2018,04,16,10,05,7.10
2018,04,16,10,06,7.10
2018,04,16,10,07,7.10
2018,04,16,10,08,7.10
2018,04,16,10,09,7.10
2018,04,16,10,10,7.10
2018,04,16,10,11,7.20
2018,04,16,10,12,7.20
2018,04,16,10,13,7.20
2018,04,16,10,14,7.20
2018,04,16,10,15,7.20
2018,04,16,10,16,7.20
2018,04,16,10,17,7.20
2018,04,16,10,18,7.20
2018,04,16,10,19,7.20
2018,04,16,10,20,7.30
2018,04,16,10,21,7.30
2018,04,16,10,22,7.30
2018,04,16,10,23,7.30
2018,04,16,10,24,7.40
2018,04,16,10,25,7.40
2018,04,16,10,26,7.40
2018,04,16,10,27,7.40
2018,04,16,10,28,7.40
2018,04,16,10,29,7.40
2018,04,16,10,30,7.40
2018,04,16,10,31,7.40
2018,04,16,10,32,7.40
2018,04,16,10,33,7.40
2018,04,16,10,34,7.40
2018,04,16,10,35,7.30
2018,04,16,10,36,7.30
2018,04,16,10,37,7.30
2018,04,16,10,38,7.40
2018,04,16,10,39,7.40
2018,04,16,10,40,7.40
2018,04,16,10,41,7.40
2018,04,16,10,42,7.40
2018,04,16,10,43,7.40
2018,04,16,10,44,7.40
2018,04,16,10,45,7.40
2018,04,16,10,46,7.50
2018,04,16,10,47,7.50
2018,04,16,10,48,7.50
2018,04,16,10,49,7.50
2018,04,16,10,50,7.50
2018,04,16,10,51,7.50
2018,04,16,10,52,7.50
2018,04,16,10,53,7.50
2018,04,16,10,54,7.50
2018,04,16,10,55,7.50
2018,04,16,10,56,7.50
2018,04,16,10,57,7.50
2018,04,16,10,58,7.50
2018,04,16,10,59,7.40
2018,04,16,11,00,7.40
2018,04,16,11,01,7.50
2018,04,16,11,02,7.50
2018,04,16,11,03,7.50
2018,04,16,11,04,7.50
2018,04,16,11,05,7.50
2018,04,16,11,06,7.50
2018,04,16,11,07,7.60
2018,04,16,11,08,7.60
2018,04,16,11,09,7.60
2018,04,16,11,10,7.60
2018,04,16,11,11,7.50
2018,04,16,11,12,7.50
2018,04,16,11,13,7.50
2018,04,16,11,14,7.50
2018,04,16,11,15,7.50
2018,04,16,11,16,7.50
2018,04,16,11,17,7.50
2018,04,16,11,18,7.50
2018,04,16,11,19,7.50
2018,04,16,11,20,7.50
2018,04,16,11,21,7.50
2018,04,16,11,22,7.50
2018,04,16,11,23,7.50
2018,04,16,11,24,7.50
2018,04,16,11,25,7.50
2018,04,16,11,26,7.50
2018,04,16,11,27,7.60
2018,04,16,11,28,7.60
2018,04,16,11,29,7.60
2018,04,16,11,30,7.60
2018,04,16,11,31,7.60
2018,04,16,11,32,7.60
2018,04,16,11,33,7.70
2018,04,16,11,34,7.70
2018,04,16,11,35,7.70
2018,04,16,11,36,7.60
2018,04,16,11,37,7.60
2018,04,16,11,38,7.70
2018,04,16,11,39,7.70
2018,04,16,11,40,7.70
2018,04,16,11,41,7.70
2018,04,16,11,42,7.80
2018,04,16,11,43,7.80
2018,04,16,11,44,7.80
2018,04,16,11,45,7.80
2018,04,16,11,46,7.80
2018,04,16,11,47,7.80
2018,04,16,11,48,7.90
2018,04,16,11,49,7.90
2018,04,16,11,50,8.00
2018,04,16,11,51,8.00
2018,04,16,11,52,8.00
2018,04,16,11,53,8.10
2018,04,16,11,54,8.10
2018,04,16,11,55,8.10
2018,04,16,11,56,8.20
2018,04,16,11,57,8.20
2018,04,16,11,58,8.20
2018,04,16,11,59,8.20
2018,04,16,12,00,8.20
2018,04,16,12,01,8.10
2018,04,16,12,02,8.10
2018,04,16,12,03,8.10
2018,04,16,12,04,8.10
2018,04,16,12,05,8.10
2018,04,16,12,06,8.10
2018,04,16,12,07,8.00
2018,04,16,12,08,8.00
2018,04,16,12,09,8.00
2018,04,16,12,10,8.00
2018,04,16,12,11,8.10
2018,04,16,12,12,8.10
2018,04,16,12,13,8.20
2018,04,16,12,14,8.20
2018,04,16,12,15,8.20
2018,04,16,12,16,8.20
2018,04,16,12,17,8.20
2018,04,16,12,18,8.30
2018,04,16,12,19,8.20
2018,04,16,12,20,8.20
2018,04,16,12,21,8.20
2018,04,16,12,22,8.30
2018,04,16,12,23,8.30
2018,04,16,12,24,8.30
2018,04,16,12,25,8.30
2018,04,16,12,26,8.30
2018,04,16,12,27,8.30
2018,04,16,12,28,8.40
2018,04,16,12,29,8.40
2018,04,16,12,30,8.50
2018,04,16,12,31,8.50
2018,04,16,12,32,8.50
2018,04,16,12,33,8.60
2018,04,16,12,34,8.60
2018,04,16,12,35,8.60
2018,04,16,12,36,8.60
2018,04,16,12,37,8.70
2018,04,16,12,38,8.70
2018,04,16,12,39,8.70
2018,04,16,12,40,8.70
2018,04,16,12,41,8.70
2018,04,16,12,42,8.70
2018,04,16,12,43,8.70
2018,04,16,12,44,8.70
2018,04,16,12,45,8.70
2018,04,16,12,46,8.70
2018,04,16,12,47,8.70
2018,04,16,12,48,8.70
2018,04,16,12,49,8.80
2018,04,16,12,50,8.80
2018,04,16,12,51,8.80
2018,04,16,12,52,8.80
2018,04,16,12,53,8.80
2018,04,16,12,54,8.80
2018,04,16,12,55,8.70
2018,04,16,12,56,8.70
2018,04,16,12,57,8.70
2018,04,16,12,58,8.70
2018,04,16,12,59,8.70
2018,04,16,13,00,8.70
2018,04,16,13,01,8.70
2018,04,16,13,02,8.60
2018,04,16,13,03,8.60
2018,04,16,13,04,8.60
2018,04,16,13,05,8.60
2018,04,16,13,06,8.60
2018,04,16,13,07,8.60
2018,04,16,13,08,8.60
2018,04,16,13,09,8.60
2018,04,16,13,10,8.60
2018,04,16,13,11,8.60
2018,04,16,13,12,8.60
2018,04,16,13,13,8.60
2018,04,16,13,14,8.60
2018,04,16,13,15,8.60
2018,04,16,13,16,8.70
2018,04,16,13,17,8.70
2018,04,16,13,18,8.70
2018,04,16,13,19,8.80
2018,04,16,13,20,8.80
2018,04,16,13,21,8.90
2018,04,16,13,22,8.90
2018,04,16,13,23,8.90
2018,04,16,13,24,8.80
2018,04,16,13,25,8.80
2018,04,16,13,26,8.80
2018,04,16,13,27,8.80
2018,04,16,13,28,8.80
2018,04,16,13,29,8.80
2018,04,16,13,30,8.80
2018,04,16,13,31,8.80
2018,04,16,13,32,8.80
2018,04,16,13,33,8.80
2018,04,16,13,34,8.80
2018,04,16,13,35,8.80
2018,04,16,13,36,8.70
2018,04,16,13,37,8.70
2018,04,16,13,38,8.70
2018,04,16,13,39,8.70
2018,04,16,13,40,8.70
2018,04,16,13,41,8.70
2018,04,16,13,42,8.70
2018,04,16,13,43,8.70
2018,04,16,13,44,8.80
2018,04,16,13,45,8.80
2018,04,16,13,46,8.80
2018,04,16,13,47,8.80
2018,04,16,13,48,8.80
2018,04,16,13,49,8.80
2018,04,16,13,50,8.80
2018,04,16,13,51,8.80
2018,04,16,13,52,8.80
2018,04,16,13,53,8.70
2018,04,16,13,54,8.70
2018,04,16,13,55,8.70
2018,04,16,13,56,8.70
2018,04,16,13,57,8.70
2018,04,16,13,58,8.70
2018,04,16,13,59,8.70
2018,04,16,14,00,8.70
2018,04,16,14,01,8.70
2018,04,16,14,02,8.70
2018,04,16,14,03,8.70
2018,04,16,14,04,8.70
2018,04,16,14,05,8.70
2018,04,16,14,06,8.70
2018,04,16,14,07,8.70
2018,04,16,14,08,8.70
2018,04,16,14,09,8.70
2018,04,16,14,10,8.70
2018,04,16,14,11,8.70
2018,04,16,14,12,8.70
2018,04,16,14,13,8.80
2018,04,16,14,14,8.80
2018,04,16,14,15,8.80
2018,04,16,14,16,8.80
2018,04,16,14,17,8.80
2018,04,16,14,18,8.70
2018,04,16,14,19,8.70
2018,04,16,14,20,8.70
2018,04,16,14,21,8.60
2018,04,16,14,22,8.60
2018,04,16,14,23,8.60
2018,04,16,14,24,8.60
2018,04,16,14,25,8.60
2018,04,16,14,26,8.60
2018,04,16,14,27,8.60
2018,04,16,14,28,8.60
2018,04,16,14,29,8.60
2018,04,16,14,30,8.50
2018,04,16,14,31,8.50
2018,04,16,14,32,8.50
2018,04,16,14,33,8.50
2018,04,16,14,34,8.60
2018,04,16,14,35,8.50
2018,04,16,14,36,8.60
2018,04,16,14,37,8.60
2018,04,16,14,38,8.50
2018,04,16,14,39,8.50
2018,04,16,14,40,8.50
2018,04,16,14,41,8.50
2018,04,16,14,42,8.50
2018,04,16,14,43,8.50
2018,04,16,14,44,8.50
2018,04,16,14,45,8.50
2018,04,16,14,46,8.50
2018,04,16,14,47,8.50
2018,04,16,14,48,8.50
2018,04,16,14,49,8.50
2018,04,16,14,50,8.60
2018,04,16,14,51,8.60
2018,04,16,14,52,8.60
2018,04,16,14,53,8.60
2018,04,16,14,54,8.60
2018,04,16,14,55,8.60
2018,04,16,14,56,8.60
2018,04,16,14,57,8.60
2018,04,16,14,58,8.60
2018,04,16,14,59,8.60
2018,04,16,15,00,8.60
2018,04,16,15,01,8.60
2018,04,16,15,02,8.60
2018,04,16,15,03,8.60
2018,04,16,15,04,8.60
2018,04,16,15,05,8.60
2018,04,16,15,06,8.60
2018,04,16,15,07,8.60
2018,04,16,15,08,8.60
2018,04,16,15,09,8.60
2018,04,16,15,10,8.60
2018,04,16,15,11,8.60
2018,04,16,15,12,8.60
2018,04,16,15,13,8.60
2018,04,16,15,14,8.60
2018,04,16,15,15,8.60
2018,04,16,15,16,8.60
2018,04,16,15,17,8.60
2018,04,16,15,18,8.60
2018,04,16,15,19,8.60
2018,04,16,15,20,8.60
2018,04,16,15,21,8.60
2018,04,16,15,22,8.60
2018,04,16,15,23,8.60
2018,04,16,15,24,8.60
2018,04,16,15,25,8.60
2018,04,16,15,26,8.60
2018,04,16,15,27,8.60
2018,04,16,15,28,8.70
2018,04,16,15,29,8.70
2018,04,16,15,30,8.70
2018,04,16,15,31,8.70
2018,04,16,15,32,8.70
2018,04,16,15,33,8.70
2018,04,16,15,34,8.70
2018,04,16,15,35,8.80
2018,04,16,15,36,8.80
2018,04,16,15,37,8.80
2018,04,16,15,38,8.80
2018,04,16,15,39,8.80
2018,04,16,15,40,8.80
2018,04,16,15,41,8.80
2018,04,16,15,42,8.80
2018,04,16,15,43,8.80
2018,04,16,15,44,8.80
2018,04,16,15,45,8.80
2018,04,16,15,46,8.80
2018,04,16,15,47,8.80
2018,04,16,15,48,8.80
2018,04,16,15,49,8.80
2018,04,16,15,50,8.80
2018,04,16,15,51,8.80
2018,04,16,15,52,8.80
2018,04,16,15,53,8.80
2018,04,16,15,54,8.80
2018,04,16,15,55,8.80
2018,04,16,15,56,8.80
2018,04,16,15,57,8.80
2018,04,16,15,58,8.80
2018,04,16,15,59,8.80
2018,04,16,16,00,8.80
2018,04,16,16,01,8.80
2018,04,16,16,02,8.80
2018,04,16,16,03,8.80
2018,04,16,16,04,8.80
2018,04,16,16,05,8.80
2018,04,16,16,06,8.80
2018,04,16,16,07,8.80
2018,04,16,16,08,8.80
2018,04,16,16,09,8.80
2018,04,16,16,10,8.80
2018,04,16,16,11,8.80
2018,04,16,16,12,8.80
2018,04,16,16,13,8.80
2018,04,16,16,14,8.80
2018,04,16,16,15,8.80
2018,04,16,16,16,8.70
2018,04,16,16,17,8.70
2018,04,16,16,18,8.70
2018,04,16,16,19,8.70
2018,04,16,16,20,8.70
2018,04,16,16,21,8.70
2018,04,16,16,22,8.70
2018,04,16,16,23,8.70
2018,04,16,16,24,8.70
2018,04,16,16,25,8.70
2018,04,16,16,26,8.70
2018,04,16,16,27,8.70
2018,04,16,16,28,8.70
2018,04,16,16,29,8.60
2018,04,16,16,30,8.60
2018,04,16,16,31,8.60
2018,04,16,16,32,8.60
2018,04,16,16,33,8.60
2018,04,16,16,34,8.60
2018,04,16,16,35,8.60
2018,04,16,16,36,8.60
2018,04,16,16,37,8.60
2018,04,16,16,38,8.70
2018,04,16,16,39,8.70
2018,04,16,16,40,8.70
2018,04,16,16,41,8.70
2018,04,16,16,42,8.60
2018,04,16,16,43,8.60
2018,04,16,16,44,8.60
2018,04,16,16,45,8.60
2018,04,16,16,46,8.60
2018,04,16,16,47,8.60
2018,04,16,16,48,8.60
2018,04,16,16,49,8.60
2018,04,16,16,50,8.60
2018,04,16,16,51,8.60
2018,04,16,16,52,8.60
2018,04,16,16,53,8.60
2018,04,16,16,54,8.60
2018,04,16,16,55,8.70
2018,04,16,16,56,8.60
2018,04,16,16,57,8.60
2018,04,16,16,58,8.60
2018,04,16,16,59,8.60
2018,04,16,17,00,8.60
2018,04,16,17,01,8.70
2018,04,16,17,02,8.70
2018,04,16,17,03,8.70
2018,04,16,17,04,8.70
2018,04,16,17,05,8.70
2018,04,16,17,06,8.70
2018,04,16,17,07,8.70
2018,04,16,17,08,8.70
2018,04,16,17,09,8.70
2018,04,16,17,10,8.70
2018,04,16,17,11,8.70
2018,04,16,17,12,8.70
2018,04,16,17,13,8.70
2018,04,16,17,14,8.70
2018,04,16,17,15,8.70
2018,04,16,17,16,8.60
2018,04,16,17,17,8.60
2018,04,16,17,18,8.60
2018,04,16,17,19,8.60
2018,04,16,17,20,8.60
2018,04,16,17,21,8.60
2018,04,16,17,22,8.60
2018,04,16,17,23,8.60
2018,04,16,17,24,8.60
2018,04,16,17,25,8.60
2018,04,16,17,26,8.60
2018,04,16,17,27,8.60
2018,04,16,17,28,8.60
2018,04,16,17,29,8.60
2018,04,16,17,30,8.60
2018,04,16,17,31,8.60
2018,04,16,17,32,8.60
2018,04,16,17,33,8.60
2018,04,16,17,34,8.60
2018,04,16,17,35,8.60
2018,04,16,17,36,8.60
2018,04,16,17,37,8.60
2018,04,16,17,38,8.60
2018,04,16,17,39,8.70
2018,04,16,17,40,8.70
2018,04,16,17,41,8.80
2018,04,16,17,42,8.80
2018,04,16,17,43,8.80
2018,04,16,17,44,8.80
2018,04,16,17,45,8.80
2018,04,16,17,46,8.90
2018,04,16,17,47,8.90
2018,04,16,17,48,8.90
2018,04,16,17,49,8.90
2018,04,16,17,50,8.90
2018,04,16,17,51,9.00
2018,04,16,17,52,9.00
2018,04,16,17,53,9.00
2018,04,16,17,54,9.00
2018,04,16,17,55,9.00
2018,04,16,17,56,8.90
2018,04,16,17,57,8.90
2018,04,16,17,58,8.90
2018,04,16,17,59,8.90
2018,04,16,18,00,8.90
2018,04,16,18,01,8.90
2018,04,16,18,02,8.80
2018,04,16,18,03,8.80
2018,04,16,18,04,8.80
2018,04,16,18,05,8.90
2018,04,16,18,06,8.90
2018,04,16,18,07,8.90
2018,04,16,18,08,8.90
2018,04,16,18,09,8.90
2018,04,16,18,10,8.90
2018,04,16,18,11,8.90
2018,04,16,18,12,8.90
2018,04,16,18,13,9.00
2018,04,16,18,14,9.00
2018,04,16,18,15,9.00
2018,04,16,18,16,9.00
2018,04,16,18,17,9.00
2018,04,16,18,18,9.00
2018,04,16,18,19,8.90
2018,04,16,18,20,8.90
2018,04,16,18,21,9.00
2018,04,16,18,22,9.00
2018,04,16,18,23,9.00
2018,04,16,18,24,8.90
2018,04,16,18,25,8.90
2018,04,16,18,26,8.90
2018,04,16,18,27,8.90
2018,04,16,18,28,8.90
2018,04,16,18,29,8.90
2018,04,16,18,30,8.90
2018,04,16,18,31,8.90
2018,04,16,18,32,8.90
2018,04,16,18,33,8.90
2018,04,16,18,34,8.90
2018,04,16,18,35,8.90
2018,04,16,18,36,8.90
2018,04,16,18,37,8.90
2018,04,16,18,38,8.90
2018,04,16,18,39,8.90
2018,04,16,18,40,8.90
2018,04,16,18,41,8.90
2018,04,16,18,42,8.90
2018,04,16,18,43,8.90
2018,04,16,18,44,8.90
2018,04,16,18,45,8.90
2018,04,16,18,46,8.90
2018,04,16,18,47,8.90
2018,04,16,18,48,8.80
2018,04,16,18,49,8.80
2018,04,16,18,50,8.80
2018,04,16,18,51,8.80
2018,04,16,18,52,8.80
2018,04,16,18,53,8.80
2018,04,16,18,54,8.70
2018,04,16,18,55,8.70
2018,04,16,18,56,8.70
2018,04,16,18,57,8.70
2018,04,16,18,58,8.70
2018,04,16,18,59,8.70
2018,04,16,19,00,8.70
2018,04,16,19,01,8.70
2018,04,16,19,02,8.70
2018,04,16,19,03,8.70
2018,04,16,19,04,8.70
2018,04,16,19,05,8.60
2018,04,16,19,06,8.60
2018,04,16,19,07,8.60
2018,04,16,19,08,8.60
2018,04,16,19,09,8.60
2018,04,16,19,10,8.60
2018,04,16,19,11,8.60
2018,04,16,19,12,8.60
2018,04,16,19,13,8.60
2018,04,16,19,14,8.60
2018,04,16,19,15,8.60
2018,04,16,19,16,8.50
2018,04,16,19,17,8.50
2018,04,16,19,18,8.50
2018,04,16,19,19,8.50
2018,04,16,19,20,8.50
2018,04,16,19,21,8.50
2018,04,16,19,22,8.50
2018,04,16,19,23,8.50
2018,04,16,19,24,8.40
2018,04,16,19,25,8.40
2018,04,16,19,26,8.40
2018,04,16,19,27,8.40
2018,04,16,19,28,8.40
2018,04,16,19,29,8.40
2018,04,16,19,30,8.40
2018,04,16,19,31,8.40
2018,04,16,19,32,8.40
2018,04,16,19,33,8.40
2018,04,16,19,34,8.40
2018,04,16,19,35,8.40
2018,04,16,19,36,8.40
2018,04,16,19,37,8.40
2018,04,16,19,38,8.40
2018,04,16,19,39,8.40
2018,04,16,19,40,8.40
2018,04,16,19,41,8.40
2018,04,16,19,42,8.40
2018,04,16,19,43,8.40
2018,04,16,19,44,8.40
2018,04,16,19,45,8.30
2018,04,16,19,46,8.30
2018,04,16,19,47,8.30
2018,04,16,19,48,8.30
2018,04,16,19,49,8.30
2018,04,16,19,50,8.30
2018,04,16,19,51,8.30
2018,04,16,19,52,8.30
2018,04,16,19,53,8.30
2018,04,16,19,54,8.30
2018,04,16,19,55,8.30
2018,04,16,19,56,8.30
2018,04,16,19,57,8.30
2018,04,16,19,58,8.30
2018,04,16,19,59,8.30
2018,04,16,20,00,8.30
2018,04,16,20,01,8.20
2018,04,16,20,02,8.20
2018,04,16,20,03,8.20
2018,04,16,20,04,8.20
2018,04,16,20,05,8.20
2018,04,16,20,06,8.20
2018,04,16,20,07,8.20
2018,04,16,20,08,8.20
2018,04,16,20,09,8.10
2018,04,16,20,10,8.10
2018,04,16,20,11,8.10
2018,04,16,20,12,8.10
2018,04,16,20,13,8.10
2018,04,16,20,14,8.10
2018,04,16,20,15,8.00
2018,04,16,20,16,8.00
2018,04,16,20,17,8.00
2018,04,16,20,18,8.00
2018,04,16,20,19,7.90
2018,04,16,20,20,7.90
2018,04,16,20,21,7.90
2018,04,16,20,22,7.90
2018,04,16,20,23,7.80
2018,04,16,20,24,7.80
2018,04,16,20,25,7.80
2018,04,16,20,26,7.80
2018,04,16,20,27,7.80
2018,04,16,20,28,7.80
2018,04,16,20,29,7.70
2018,04,16,20,30,7.70
2018,04,16,20,31,7.70
2018,04,16,20,32,7.70
2018,04,16,20,33,7.70
2018,04,16,20,34,7.60
2018,04,16,20,35,7.60
2018,04,16,20,36,7.50
2018,04,16,20,37,7.50